Location: Usti nad Labem
(50.6670°N, 14.0330°E)
Time: 21:53:06
(UTC+01:00)

Envisat - Pass Details

Date: 09 December 2020
Orbit: 764 x 766 km, 98.1° (Epoch: 15 January)

Event Time Altitude Azimuth Distance (km) Brightness Sun altitude
Rises 17:38:37 0° 187° (S) 3,221 6.6 -14.8°
Reaches altitude 10° 17:41:04 10° 196° (SSW) 2,300 5.9 -15.2°
Maximum altitude 17:45:46 38° 264° (W) 1,167 4.6 -15.9°
Drops below altitude 10° 17:50:30 10° 332° (NNW) 2,315 5.6 -16.6°
Sets 17:52:59 0° 340° (NNW) 3,246 6.3 -17.0°
